STARLINK-3683 (53167 NORAD) Tracking and Keplerian Element Data

This shows tracking and keplerian element data for the satellite.

Feedback or suggestion? Click here.




ElementValue
Catalog53167
NameSTARLINK-3683
Epoch Orbit130
Epoch Day269.91667824
Epoch Year2022
RAAN53.8331
Inclination53.2131
Eccentricity0.0004287
Argument of Perigee2.0764
Mean Anonmoly21.9392
Mean Motion15.73223647
Decay Rate-0.00040727
L11 53167U 22083AM 22269.91667824 -.00040727 00000+0 -28667-3 0 9994
L22 53167 53.2131 53.8331 0004287 2.0764 21.9392 15.73223647 1302

Live tracking and technical data element details for STARLINK-3683 (NORAD 53167). STARLINK-3683 can be tracked NOW for your location showing map with azimuth and elevation plus other details from your city location.

Track the satellite on the map from your city or location and see movement details for azimuth, elevation, latitude, longitude, range, height, and movement on the map or in text.







IsCatalogInMostPopularTable: catalog: 53167, numindb: 5
Update: records affected: 1



GetName: 53167 STARLINK-3683

Hit Count: updated at: Fri, 30 Sep 2022 04:01:43 GMT